Tehachapi, CA

7:59 AM PST on December 13, 2019 (GMT -0800)
Tehachapi Municipal

Weather History for KTSP - October, 2019

Change the Weather History Date:

Thursday, October 24, 2019

  Actual Average Record
Temperature  
Mean Temperature 63 °F -  
Max Temperature 73 °F 68 °F 82 °F (2017)
Min Temperature 53 °F 39 °F 35 °F (2013)
Degree Days  
Heating Degree Days 2    
Growing Degree Days 13 (Base 50)    
Moisture  
Dew Point 10 °F    
Average Humidity 13    
Maximum Humidity 31    
Minimum Humidity 7    
Precipitation  
Precipitation 0.00 in - - ()
Sea Level Pressure  
Sea Level Pressure 30.23 in    
Wind  
Wind Speed 13 mph ()    
Max Wind Speed 23 mph    
Max Gust Speed 30 mph    
Visibility 9.6 miles    
Events      
Averages and records for this station are not official NWS values.
T = Trace of Precipitation, MM = Missing Value Source: Averaged Metar Reports

Daily Weather History Graph

Daily Weather History Graph

Search for Another Location

Airport or City:

Astronomy

Oct. 24, 2019 Rise Set
Actual Time 7:07 AM PDT 6:07 PM PDT
Civil Twilight 6:41 AM PDT 6:33 PM PDT
Nautical Twilight 6:11 AM PDT 7:03 PM PDT
Astronomical Twilight 5:42 AM PDT 7:32 PM PDT
Moon 2:56 AM PDT (10/24) 4:26 PM PDT (10/24)
Length of Visible Light 11h 52m
Length of Day
11h 00m
Waning Crescent, 16% of the Moon is Illuminated
Oct 24
Waning Crescent
Oct 27
New
Nov 4
First Quarter
Nov 12
Full
Nov 19
Last Quarter

Hourly Weather History & Observations

Time (PDT) Temp. Dew Point Humidity Pressure Visibility Wind Dir Wind Speed Gust Speed Precip Events Conditions
12:15 AM 55.4 °F 24.8 °F 31% 30.14 in 10.0 mi SE 10.4 mph - N/A   Partly Cloudy
12:35 AM 57.2 °F 24.8 °F 29% 30.14 in 10.0 mi ESE 9.2 mph - N/A   Partly Cloudy
12:55 AM 57.2 °F 24.8 °F 29% 30.15 in 10.0 mi ESE 10.4 mph - N/A   Partly Cloudy
1:15 AM 62.6 °F 24.8 °F 24% 30.14 in 10.0 mi East 10.4 mph 16.1 mph N/A   Partly Cloudy
1:35 AM 66.2 °F 23.0 °F 19% 30.15 in 10.0 mi East 11.5 mph 19.6 mph N/A   Partly Cloudy
1:55 AM 66.2 °F 23.0 °F 19% 30.15 in 10.0 mi ESE 10.4 mph - N/A   Clear
2:15 AM 64.4 °F 19.4 °F 18% 30.15 in 10.0 mi East 11.5 mph 18.4 mph N/A   Partly Cloudy
2:35 AM 64.4 °F 19.4 °F 18% 30.15 in 10.0 mi East 12.7 mph 16.1 mph N/A   Partly Cloudy
2:55 AM 64.4 °F 17.6 °F 16% 30.15 in 10.0 mi East 13.8 mph 20.7 mph N/A   Partly Cloudy
3:15 AM 64.4 °F 17.6 °F 16% 30.15 in 10.0 mi East 17.3 mph 23.0 mph N/A   Partly Cloudy
3:35 AM 64.4 °F 15.8 °F 15% 30.15 in 10.0 mi ESE 13.8 mph 19.6 mph N/A   Partly Cloudy
3:55 AM 64.4 °F 15.8 °F 15% 30.15 in 10.0 mi East 13.8 mph 20.7 mph N/A   Partly Cloudy
4:15 AM 62.6 °F 15.8 °F 16% 30.15 in 10.0 mi SE 12.7 mph - N/A   Scattered Clouds
4:35 AM 57.2 °F 15.8 °F 20% 30.15 in 10.0 mi SE 12.7 mph - N/A   Scattered Clouds
4:55 AM 59.0 °F 14.0 °F 17% 30.16 in 10.0 mi ESE 11.5 mph - N/A   Partly Cloudy
5:15 AM 62.6 °F 14.0 °F 15% 30.16 in 10.0 mi ESE 10.4 mph - N/A   Clear
5:35 AM 62.6 °F 14.0 °F 15% 30.17 in 10.0 mi ESE 12.7 mph 17.3 mph N/A   Partly Cloudy
5:55 AM 60.8 °F 14.0 °F 16% 30.17 in 10.0 mi ESE 13.8 mph - N/A   Scattered Clouds
6:15 AM 59.0 °F 14.0 °F 17% 30.17 in 10.0 mi SE 16.1 mph 20.7 mph N/A   Scattered Clouds
6:35 AM 59.0 °F 14.0 °F 17% 30.18 in 10.0 mi ESE 16.1 mph 21.9 mph N/A   Scattered Clouds
6:55 AM 62.6 °F 14.0 °F 15% 30.19 in 10.0 mi ESE 17.3 mph 26.5 mph N/A   Clear
7:15 AM 59.0 °F 15.8 °F 19% 30.20 in 10.0 mi SE 17.3 mph 24.2 mph N/A   Clear
7:35 AM 57.2 °F 17.6 °F 21% 30.21 in 10.0 mi SE 16.1 mph 21.9 mph N/A   Clear
7:55 AM 59.0 °F 15.8 °F 19% 30.21 in 9.0 mi SE 16.1 mph 21.9 mph N/A   Clear
8:15 AM 60.8 °F 15.8 °F 17% 30.22 in 10.0 mi SE 15.0 mph 18.4 mph N/A   Clear
8:35 AM 62.6 °F 15.8 °F 16% 30.23 in 10.0 mi ESE 16.1 mph 19.6 mph N/A   Clear
8:55 AM 64.4 °F 15.8 °F 15% 30.24 in 10.0 mi ESE 17.3 mph 23.0 mph N/A   Clear
9:15 AM 64.4 °F 14.0 °F 14% 30.25 in 10.0 mi SE 20.7 mph 27.6 mph N/A   Clear
9:35 AM 66.2 °F 14.0 °F 13% 30.26 in 9.0 mi SE 19.6 mph 26.5 mph N/A   Clear
9:55 AM 66.2 °F 15.8 °F 14% 30.27 in 9.0 mi SE 19.6 mph 26.5 mph N/A   Clear
10:15 AM 66.2 °F 14.0 °F 13% 30.27 in 10.0 mi ESE 19.6 mph 25.3 mph N/A   Clear
10:35 AM 66.2 °F 14.0 °F 13% 30.28 in 9.0 mi ESE 17.3 mph 26.5 mph N/A   Clear
10:55 AM 68.0 °F 14.0 °F 12% 30.27 in 9.0 mi SE 23.0 mph 28.8 mph N/A   Clear
11:15 AM 68.0 °F 12.2 °F 12% 30.27 in 8.0 mi SE 23.0 mph 28.8 mph N/A   Clear
11:35 AM 68.0 °F 10.4 °F 11% 30.28 in 8.0 mi ESE 20.7 mph 26.5 mph N/A   Clear
11:55 AM 69.8 °F 10.4 °F 10% 30.27 in 10.0 mi SE 20.7 mph 27.6 mph N/A   Clear
12:15 PM 71.6 °F 10.4 °F 9% 30.26 in 10.0 mi ESE 19.6 mph 27.6 mph N/A   Clear
12:35 PM 71.6 °F 8.6 °F 9% 30.27 in 7.0 mi ESE 16.1 mph 25.3 mph N/A   Clear
12:55 PM 71.6 °F 8.6 °F 9% 30.26 in 8.0 mi ESE 19.6 mph 29.9 mph N/A   Clear
1:15 PM 71.6 °F 8.6 °F 9% 30.25 in 7.0 mi SE 18.4 mph 28.8 mph N/A   Clear
1:35 PM 73.4 °F 8.6 °F 8% 30.25 in 10.0 mi SE 19.6 mph 25.3 mph N/A   Clear
1:55 PM 73.4 °F 6.8 °F 8% 30.24 in 8.0 mi SE 21.9 mph - N/A   Clear
2:15 PM 73.4 °F 6.8 °F 8% 30.23 in 7.0 mi SE 17.3 mph 24.2 mph N/A   Clear
2:35 PM 73.4 °F 6.8 °F 8% 30.23 in 5.0 mi ESE 19.6 mph 25.3 mph N/A   Haze
2:55 PM 73.4 °F 6.8 °F 8% 30.23 in 7.0 mi SE 17.3 mph 24.2 mph N/A   Clear
3:15 PM 73.4 °F 6.8 °F 8% 30.23 in 9.0 mi ESE 19.6 mph 28.8 mph N/A   Clear
3:35 PM 73.4 °F 6.8 °F 8% 30.24 in 10.0 mi ESE 18.4 mph 29.9 mph N/A   Clear
3:55 PM 73.4 °F 5.0 °F 7% 30.24 in 10.0 mi SE 18.4 mph 25.3 mph N/A   Clear
4:15 PM 73.4 °F 5.0 °F 7% 30.25 in 10.0 mi SE 12.7 mph 21.9 mph N/A   Clear
4:35 PM 73.4 °F 5.0 °F 7% 30.24 in 10.0 mi ESE 11.5 mph 21.9 mph N/A   Clear
4:55 PM 71.6 °F 5.0 °F 7% 30.23 in 10.0 mi ESE 13.8 mph 20.7 mph N/A   Clear
5:15 PM 71.6 °F 3.2 °F 7% 30.23 in 10.0 mi ESE 13.8 mph - N/A   Clear
5:35 PM 69.8 °F 5.0 °F 8% 30.24 in 10.0 mi SE 11.5 mph - N/A   Clear
5:55 PM 68.0 °F 1.4 °F 7% 30.23 in 10.0 mi ESE 12.7 mph - N/A   Clear
6:15 PM 66.2 °F -0.4 °F 7% 30.24 in 10.0 mi ESE 10.4 mph - N/A   Clear
6:35 PM 62.6 °F -0.4 °F 8% 30.24 in 10.0 mi ESE 9.2 mph - N/A   Clear
6:55 PM 62.6 °F -2.2 °F 7% 30.25 in 10.0 mi ESE 11.5 mph - N/A   Clear
7:15 PM 60.8 °F -2.2 °F 8% 30.26 in 10.0 mi East 9.2 mph - N/A   Clear
7:35 PM 60.8 °F -2.2 °F 8% 30.26 in 10.0 mi East 10.4 mph - N/A   Partly Cloudy
7:55 PM 59.0 °F -2.2 °F 8% 30.27 in 10.0 mi ESE 9.2 mph - N/A   Partly Cloudy
8:55 PM 59.0 °F -2.2 °F 8% 30.28 in 10.0 mi SE 6.9 mph - N/A   Clear
9:15 PM 59.0 °F -2.2 °F 8% 30.28 in 10.0 mi East 10.4 mph - N/A   Clear
9:35 PM 57.2 °F -0.4 °F 10% 30.29 in 10.0 mi SE 10.4 mph - N/A   Clear
9:55 PM 57.2 °F -2.2 °F 9% 30.30 in 10.0 mi East 10.4 mph - N/A   Clear
10:15 PM 55.4 °F -2.2 °F 9% 30.30 in 10.0 mi SE 9.2 mph - N/A   Clear
10:35 PM 55.4 °F -2.2 °F 9% 30.30 in 10.0 mi East 11.5 mph - N/A   Clear
10:55 PM 53.6 °F -2.2 °F 10% 30.31 in 10.0 mi East 9.2 mph - N/A   Scattered Clouds
11:15 PM 57.2 °F -2.2 °F 9% 30.31 in 10.0 mi East 12.7 mph - N/A   Scattered Clouds
11:35 PM 57.2 °F -2.2 °F 9% 30.30 in 10.0 mi East 10.4 mph - N/A   Partly Cloudy
11:55 PM 57.2 °F -2.2 °F 9% 30.31 in 10.0 mi ESE 10.4 mph - N/A   Partly Cloudy